Location: Unspecified
(47.6577°N, 23.5639°E)
Time: 20:37:18
(UTC+03:00)

ISS - Pass Details

Date: 02 February 2017
Orbit: 402 x 409 km, 51.6° (Epoch: 25 May)

Event Time Altitude Azimuth Distance (km) Brightness Sun altitude
Rises 19:03:16 0° 253° (WSW) 2,331 1.7 -16.1°
Reaches altitude 10° 19:05:22 10° 256° (WSW) 1,469 0.3 -16.5°
Maximum altitude 19:08:39 67° 340° (NNW) 444 -3.7 -17.0°
Enters shadow 19:09:28 45° 45° (NE) 564 -3.5 -17.2°
